Location: Gisborne
(38.6530°S, 178.0040°E)
Time: 02:11:48
(UTC+12:00)

SL-16 R/B - Pass Details

Date: 24 January 2019
Orbit: 842 x 846 km, 71.0° (Epoch: 19 April)

Event Time Altitude Azimuth Distance (km) Brightness Sun altitude
Rises 20:55:07 0° 3° (N) 3,395 5.0 -5.2°
Reaches altitude 10° 20:57:43 10° 11° (N) 2,468 4.2 -5.7°
Maximum altitude 21:02:50 36° 76° (ENE) 1,327 2.8 -6.5°
Drops below altitude 10° 21:08:00 10° 140° (SE) 2,497 4.6 -7.4°
Sets 21:10:39 0° 148° (SSE) 3,439 5.4 -7.8°
